Weather in Gorodets

Russia / Nizhny Novgorod Oblast'     56°38′41″N   43°28′20″E
temp.,
°C
wind,
m/s
gust,
m/s
humid.,
%
clouds,
%
prec.,
mm/h
press.,
hPa
HPBL,
m
12 april, mon
mon1200:000ese009714 0.0 103510
03:000e22969 0.0 103613
06:00+1e2497100 0.0 103763
09:00+5ese3799100 0.0 1038201
12:00+8ese4893100 0.0 1037341
15:00+8ese4892100 0.0 1037372
18:00+6e51095100 0.0 1035322
21:00+6ese51395100 0.0 1035363
13 april, tue
tue1300:00+5se51295100 0.0 1034270
03:00+4ese4997100 0.0 1033177
06:00+4se4898100 0.0 1033133
09:00+8sse4787100 0.0 1031177
12:00+13sse486499 0.0 1030431
15:00+15s485076 0.0 1029756
18:00+12sse3663100 0.0 102877
21:00+9sse377459 0.0 1028100
14 april, wed
wed1400:00+7sse387870 0.0 1028103
03:00+6sse3480100 0.0 102851
06:00+6sse3481100 0.0 102763
09:00+10sse466679 0.0 1027194
12:00+14sse47525 0.0 1025538
15:00+15sse46430 0.0 1024901
18:00+13se365349 0.0 102291
21:00+9sse366795 0.0 102276
15 april, thu
thu1500:00+7sse227391 0.0 102227
03:00+6sse22775 0.0 102220
06:00+6sse22784 0.0 102126
09:00+10s23620 0.0 1021187
12:00+14s225054 0.0 1020565
15:00+15sse11445 0.0 1019972
18:00+13e115274 0.0 101811
21:00+10e1159100 0.0 101810
16 april, fri
fri1600:00+8ne116849 0.0 101810
03:00+6nne228480 0.0 101827
06:00+5n3696100 0.0 1019125
09:00+8nne3580100 0.0 1019349
12:00+10nne4569100 0.0 1020722
15:00+9nne577281 0.0 1021701
18:00+7nne487580 0.0 1022636
21:00+5nne411720 0.0 1023370